Aérodrome :
LOGIN :

S'inscrire | Disclaimer

   EN    FR    IT 

 










Légende :    VFR   VFR Marginal   IFR   IFR Intensif   IFR Très Intensif
Visi : 
Plafond : 
>= 8 km
>= 3000ft
5 à 8 km
1000 à 3000 ft
1500m à 5 km
500 à 1000 ft
800 à 1500m
200 à 500 ft
< 800m
< 200 ft
Symboles :   Orages  Brouillard  Fortes neiges  Fortes précipitations  Vent > 20 kt
SIGMETs :   Divers  Orages  Givrage  Turbulence  Onde Orograph.  Cendres Volcan.







- Altitude de l'aérodrome : 330 ft
- Code IATA : LVA
- Voir les cartes d'approche


LFOV - Laval-Entrammes

DERNIER METAR :
  • 221500Z AUTO 24004KT 160V280 CAVOK 26/13 Q1015

METARs EXPIRÉS :
  • 221430Z AUTO 21006KT 170V270 CAVOK 25/11 Q1015
  • 221400Z AUTO 21006KT 160V250 CAVOK 24/13 Q1015
  • 221330Z AUTO VRB03KT CAVOK 24/13 Q1015
  • 221300Z AUTO 23003KT 140V300 CAVOK 24/14 Q1015
  • 221230Z AUTO VRB03KT CAVOK 23/13 Q1015

TAF N/A
Pas de NOTAMs connus pour ce terrain.



MET'MAP, la Météo Aéronautique d'un coup d'oeil ! - Copyright ORBIFLY Décembre 2007 - Disclaimer

ORBIFLY MET'MAP TEAM :

Programmation & Développement : Alexandra Zaïnal
Conception & Développement : Baudouin d'Aumeries
Co-Programmation & Développement : Marc-Olivier Méhu
Soutien technique & logistique : Manuel Goepfert

Contact : metmap@orbifly.com




SOURCES & CREDITS :

   NOAA